Location: Camps Bay
(33.9517°S, 18.3844°E)
Time: 16:28:30
(UTC+00:00)

SL-19 R/B - Pass Details

Date: 18 January 2020
Orbit: 874 x 1209 km, 100.5° (Epoch: 25 February)

Event Time Altitude Azimuth Distance (km) Brightness Sun altitude
Rises 00:41:07 0° 164° (SSE) 3,505 8.5 -30.0°
Reaches altitude 10° 00:43:29 10° 162° (SSE) 2,573 7.6 -29.7°
Maximum altitude 00:49:11 77° 75° (ENE) 947 4.3 -29.1°
Enters shadow 00:49:15 77° 66° (ENE) 948 4.3 -29.1°
